| time (UTC) | temp F | wind direction | speed MPH | gust MPH | rain 1hr in | rain 24hr in | rain mn in | humidity % | barometer mb |
| 20260505052004 | 46 | 293 | 2.0 | 5.0 | 0.00 | 0.00 | 0.00 | 90 | 1012.4 |
| 20260505051503 | 47 | 311 | 3.0 | 4.0 | 0.00 | 0.00 | 0.00 | 89 | 1012.4 |
| 20260505051004 | 47 | 296 | 1.0 | 4.0 | 0.00 | 0.00 | 0.00 | 89 | 1012.5 |
| 20260505050504 | 47 | 308 | 0.0 | 3.0 | 0.00 | 0.00 | 0.00 | 88 | 1012.5 |
| 20260505041509 | 47 | 300 | 1.0 | 4.0 | 0.00 | 0.00 | 0.00 | 89 | 1012.1 |
| 20260505041003 | 47 | 321 | 2.0 | 5.0 | 0.00 | 0.00 | 0.00 | 89 | 1012.1 |
| 20260505040503 | 47 | 301 | 2.0 | 5.0 | 0.00 | 0.00 | 0.00 | 89 | 1012.2 |
| 20260505040010 | 48 | 313 | 2.0 | 3.0 | 0.00 | 0.00 | 0.00 | 89 | 1012.1 |
| 20260505035508 | 48 | 311 | 1.0 | 3.0 | 0.00 | 0.00 | 0.00 | 88 | 1012.1 |
| 20260505035008 | 48 | 299 | 0.0 | 3.0 | 0.00 | 0.00 | 0.00 | 88 | 1012.1 |
| 20260505034507 | 48 | 299 | 0.0 | 4.0 | 0.00 | 0.00 | 0.00 | 88 | 1012.1 |
| 20260505034004 | 48 | 306 | 3.0 | 4.0 | 0.00 | 0.00 | 0.00 | 89 | 1012.1 |
| 20260505033503 | 48 | 304 | 2.0 | 4.0 | 0.00 | 0.00 | 0.00 | 88 | 1012.1 |
| 20260505033010 | 48 | 298 | 2.0 | 3.0 | 0.00 | 0.00 | 0.00 | 88 | 1012.1 |
| 20260505032503 | 48 | 309 | 1.0 | 3.0 | 0.00 | 0.00 | 0.00 | 87 | 1012.1 |
| 20260505032005 | 49 | 309 | 0.0 | 3.0 | 0.00 | 0.00 | 0.00 | 87 | 1012.1 |
| 20260505031512 | 49 | 309 | 1.0 | 3.0 | 0.00 | 0.00 | 0.00 | 86 | 1012.1 |
| 20260505031005 | 49 | 309 | 2.0 | 3.0 | 0.00 | 0.00 | 0.00 | 86 | 1012.1 |
| 20260505030504 | 50 | 309 | 1.0 | 3.0 | 0.00 | 0.00 | 0.00 | 85 | 1012.2 |
| 20260505030007 | 50 | 309 | 1.0 | 3.0 | 0.00 | 0.00 | 0.00 | 85 | 1012.2 |
| 20260505025504 | 50 | 309 | 1.0 | 3.0 | 0.00 | 0.00 | 0.00 | 85 | 1012.1 |
| 20260505025004 | 50 | 309 | 2.0 | 3.0 | 0.00 | 0.00 | 0.00 | 85 | 1012.2 |
| 20260505024510 | 50 | 309 | 0.0 | 3.0 | 0.00 | 0.00 | 0.00 | 85 | 1012.2 |
| 20260505024008 | 50 | 309 | 1.0 | 3.0 | 0.00 | 0.00 | 0.00 | 84 | 1012.1 |
| 20260505023503 | 51 | 309 | 2.0 | 3.0 | 0.00 | 0.00 | 0.00 | 84 | 1012.1 |
| 20260505023010 | 51 | 309 | 0.0 | 3.0 | 0.00 | 0.00 | 0.00 | 83 | 1012.1 |
| 20260505022503 | 51 | 309 | 1.0 | 3.0 | 0.00 | 0.00 | 0.00 | 83 | 1012.1 |
| 20260505022006 | 51 | 309 | 0.0 | 4.0 | 0.00 | 0.00 | 0.00 | 82 | 1012.0 |
| 20260505021515 | 51 | 309 | 0.0 | 4.0 | 0.00 | 0.00 | 0.00 | 82 | 1012.0 |
| 20260505021003 | 52 | 321 | 2.0 | 3.0 | 0.00 | 0.00 | 0.00 | 81 | 1012.0 |
| 20260505020505 | 52 | 293 | 1.0 | 3.0 | 0.00 | 0.00 | 0.00 | 80 | 1012.0 |
| 20260505020017 | 53 | 293 | 0.0 | 4.0 | 0.00 | 0.00 | 0.00 | 79 | 1012.0 |
| 20260505015508 | 53 | 294 | 2.0 | 4.0 | 0.00 | 0.00 | 0.00 | 78 | 1012.0 |
| 20260505015004 | 53 | 288 | 2.0 | 4.0 | 0.00 | 0.00 | 0.00 | 77 | 1012.1 |
| 20260505014515 | 53 | 292 | 2.0 | 6.0 | 0.00 | 0.00 | 0.00 | 77 | 1012.1 |
| 20260505014003 | 54 | 289 | 2.0 | 6.0 | 0.00 | 0.00 | 0.00 | 76 | 1012.1 |
| 20260505013507 | 54 | 273 | 3.0 | 6.0 | 0.00 | 0.00 | 0.00 | 75 | 1012.0 |
| 20260505013016 | 54 | 282 | 2.0 | 6.0 | 0.00 | 0.00 | 0.00 | 75 | 1012.0 |
| 20260505012504 | 56 | 306 | 2.0 | 6.0 | 0.00 | 0.00 | 0.00 | 73 | 1012.0 |
| 20260505012004 | 56 | 273 | 2.0 | 7.0 | 0.00 | 0.00 | 0.00 | 71 | 1012.0 |
| 20260505011515 | 56 | 279 | 3.0 | 7.0 | 0.00 | 0.00 | 0.00 | 71 | 1011.9 |
| 20260505011006 | 57 | 275 | 4.0 | 7.0 | 0.00 | 0.00 | 0.00 | 70 | 1011.9 |
| 20260505010507 | 57 | 284 | 3.0 | 7.0 | 0.00 | 0.00 | 0.00 | 69 | 1011.9 |
| 20260505010020 | 57 | 281 | 4.0 | 7.0 | 0.00 | 0.00 | 0.00 | 69 | 1011.8 |
| 20260505005504 | 58 | 279 | 3.0 | 7.0 | 0.00 | 0.00 | 0.00 | 67 | 1011.8 |
| 20260505005008 | 58 | 279 | 3.0 | 7.0 | 0.00 | 0.00 | 0.00 | 67 | 1011.7 |
| 20260505004518 | 58 | 293 | 3.0 | 6.0 | 0.00 | 0.00 | 0.00 | 67 | 1011.7 |
| 20260505004006 | 59 | 276 | 2.0 | 3.0 | 0.00 | 0.00 | 0.00 | 66 | 1011.7 |
| 20260505003504 | 59 | 280 | 2.0 | 3.0 | 0.00 | 0.00 | 0.00 | 65 | 1011.7 |
| 20260505003013 | 60 | 272 | 2.0 | 3.0 | 0.00 | 0.00 | 0.00 | 64 | 1011.7 |
| 20260505002504 | 61 | 293 | 2.0 | 3.0 | 0.00 | 0.00 | 0.00 | 61 | 1011.7 |
| 20260505002009 | 62 | 269 | 0.0 | 3.0 | 0.00 | 0.00 | 0.00 | 59 | 1011.7 |
| 20260505001520 | 62 | 298 | 0.0 | 2.0 | 0.00 | 0.00 | 0.00 | 56 | 1011.7 |
| 20260505001008 | 63 | 298 | 0.0 | 4.0 | 0.00 | 0.00 | 0.00 | 56 | 1011.7 |
| 20260505000505 | 64 | 298 | 0.0 | 4.0 | 0.00 | 0.00 | 0.00 | 55 | 1011.7 |
| 20260505000017 | 64 | 259 | 2.0 | 4.0 | 0.00 | 0.00 | 0.00 | 53 | 1011.7 |
| 20260504235507 | 65 | 220 | 0.0 | 4.0 | 0.00 | 0.00 | 0.00 | 50 | 1011.7 |
| 20260504235008 | 66 | 254 | 1.0 | 4.0 | 0.00 | 0.00 | 0.00 | 50 | 1011.7 |
| 20260504234519 | 66 | 231 | 2.0 | 10.0 | 0.00 | 0.00 | 0.00 | 48 | 1011.7 |
| 20260504234011 | 67 | 301 | 2.0 | 10.0 | 0.00 | 0.00 | 0.00 | 48 | 1011.7 |
| 20260504233507 | 67 | 255 | 1.0 | 11.0 | 0.00 | 0.00 | 0.00 | 47 | 1011.7 |
| 20260504233017 | 67 | 332 | 5.0 | 11.0 | 0.00 | 0.00 | 0.00 | 47 | 1011.7 |
| 20260504232508 | 67 | 208 | 5.0 | 10.0 | 0.00 | 0.00 | 0.00 | 47 | 1011.6 |
| 20260504232006 | 67 | 166 | 1.0 | 8.0 | 0.00 | 0.00 | 0.00 | 48 | 1011.5 |
| 20260504231515 | 67 | 219 | 3.0 | 8.0 | 0.00 | 0.00 | 0.00 | 49 | 1011.6 |
| 20260504231007 | 67 | 227 | 2.0 | 11.0 | 0.00 | 0.00 | 0.00 | 48 | 1011.6 |
| 20260504230508 | 67 | 260 | 3.0 | 11.0 | 0.00 | 0.00 | 0.00 | 48 | 1011.6 |
| 20260504230020 | 67 | 318 | 2.0 | 11.0 | 0.00 | 0.00 | 0.00 | 49 | 1011.5 |
| 20260504225504 | 67 | 300 | 3.0 | 10.0 | 0.00 | 0.00 | 0.00 | 48 | 1011.5 |
| 20260504225003 | 67 | 237 | 4.0 | 10.0 | 0.00 | 0.00 | 0.00 | 50 | 1011.5 |
| 20260504224506 | 67 | 126 | 3.0 | 11.0 | 0.00 | 0.00 | 0.00 | 51 | 1011.4 |
| 20260504224003 | 67 | 220 | 3.0 | 11.0 | 0.00 | 0.00 | 0.00 | 51 | 1011.5 |
| 20260504223507 | 67 | 190 | 3.0 | 10.0 | 0.00 | 0.00 | 0.00 | 50 | 1011.5 |
| 20260504223005 | 67 | 101 | 3.0 | 10.0 | 0.00 | 0.00 | 0.00 | 50 | 1011.3 |
| 20260504222505 | 67 | 170 | 4.0 | 8.0 | 0.00 | 0.00 | 0.00 | 48 | 1011.6 |
| 20260504222005 | 67 | 305 | 0.0 | 16.0 | 0.00 | 0.00 | 0.00 | 48 | 1011.7 |
| 20260504221512 | 67 | 228 | 6.0 | 16.0 | 0.00 | 0.00 | 0.00 | 47 | 1011.6 |
| 20260504221006 | 67 | 287 | 4.0 | 14.0 | 0.00 | 0.00 | 0.00 | 47 | 1011.6 |
| 20260504220507 | 68 | 248 | 4.0 | 14.0 | 0.00 | 0.00 | 0.00 | 47 | 1011.4 |
| 20260504220018 | 68 | 313 | 7.0 | 14.0 | 0.00 | 0.00 | 0.00 | 47 | 1011.3 |
| 20260504215508 | 68 | 221 | 4.0 | 11.0 | 0.00 | 0.00 | 0.00 | 48 | 1011.4 |
| 20260504215008 | 68 | 225 | 1.0 | 7.0 | 0.00 | 0.00 | 0.00 | 50 | 1011.5 |
| 20260504214525 | 68 | 245 | 2.0 | 6.0 | 0.00 | 0.00 | 0.00 | 49 | 1011.5 |
| 20260504214007 | 67 | 239 | 0.0 | 6.0 | 0.00 | 0.00 | 0.00 | 50 | 1011.5 |
| 20260504213505 | 67 | 285 | 2.0 | 6.0 | 0.00 | 0.00 | 0.00 | 49 | 1011.5 |
| 20260504213006 | 67 | 269 | 3.0 | 11.0 | 0.00 | 0.00 | 0.00 | 50 | 1011.5 |
| 20260504212503 | 66 | 289 | 4.0 | 11.0 | 0.00 | 0.00 | 0.00 | 49 | 1011.4 |
| 20260504212011 | 66 | 288 | 5.0 | 20.0 | 0.00 | 0.00 | 0.00 | 49 | 1011.5 |
| 20260504211515 | 66 | 270 | 4.0 | 20.0 | 0.00 | 0.00 | 0.00 | 49 | 1011.5 |
| 20260504211005 | 67 | 290 | 5.0 | 14.0 | 0.00 | 0.00 | 0.00 | 49 | 1011.4 |
| 20260504210506 | 67 | 242 | 3.0 | 13.0 | 0.00 | 0.00 | 0.00 | 46 | 1011.4 |
| 20260504210029 | 67 | 301 | 5.0 | 12.0 | 0.00 | 0.00 | 0.00 | 45 | 1011.3 |
| 20260504205505 | 67 | 287 | 8.0 | 12.0 | 0.00 | 0.00 | 0.00 | 46 | 1011.2 |
| 20260504205006 | 67 | 273 | 5.0 | 14.0 | 0.00 | 0.00 | 0.00 | 46 | 1011.3 |
| 20260504204529 | 67 | 294 | 5.0 | 16.0 | 0.00 | 0.00 | 0.00 | 45 | 1011.2 |
| 20260504204009 | 68 | 338 | 9.0 | 18.0 | 0.00 | 0.00 | 0.00 | 45 | 1011.4 |
| 20260504203509 | 68 | 266 | 6.0 | 24.0 | 0.00 | 0.00 | 0.00 | 44 | 1011.3 |
| 20260504203026 | 68 | 218 | 7.0 | 25.0 | 0.00 | 0.00 | 0.00 | 44 | 1011.3 |
| 20260504202510 | 68 | 234 | 10.0 | 25.0 | 0.00 | 0.00 | 0.00 | 43 | 1011.2 |
| 20260504202006 | 68 | 269 | 8.0 | 19.0 | 0.00 | 0.00 | 0.00 | 43 | 1011.4 |
| 20260504201526 | 68 | 307 | 10.0 | 19.0 | 0.00 | 0.00 | 0.00 | 43 | 1011.3 |
| 20260504201002 | 68 | 182 | 10.0 | 18.0 | 0.00 | 0.00 | 0.00 | 43 | 1011.3 |
| 20260504200505 | 68 | 298 | 7.0 | 15.0 | 0.00 | 0.00 | 0.00 | 43 | 1011.3 |
| 20260504200010 | 68 | 276 | 6.0 | 17.0 | 0.00 | 0.00 | 0.00 | 43 | 1011.2 |
| 20260504195506 | 68 | 258 | 6.0 | 18.0 | 0.00 | 0.00 | 0.00 | 42 | 1011.1 |
| 20260504195008 | 68 | 297 | 10.0 | 18.0 | 0.00 | 0.00 | 0.00 | 42 | 1011.1 |
| 20260504194518 | 69 | 287 | 8.0 | 16.0 | 0.00 | 0.00 | 0.00 | 42 | 1011.1 |
| 20260504194007 | 69 | 258 | 7.0 | 15.0 | 0.00 | 0.00 | 0.00 | 42 | 1011.1 |
| 20260504193506 | 69 | 313 | 6.0 | 15.0 | 0.00 | 0.00 | 0.00 | 42 | 1011.2 |
| 20260504193026 | 69 | 138 | 7.0 | 16.0 | 0.00 | 0.00 | 0.00 | 42 | 1011.2 |
| 20260504192508 | 69 | 211 | 6.0 | 16.0 | 0.00 | 0.00 | 0.00 | 42 | 1011.3 |
| 20260504192010 | 69 | 277 | 9.0 | 23.0 | 0.00 | 0.00 | 0.00 | 42 | 1011.4 |
| 20260504191526 | 69 | 229 | 11.0 | 23.0 | 0.00 | 0.00 | 0.00 | 42 | 1011.4 |
| 20260504191011 | 69 | 232 | 8.0 | 14.0 | 0.00 | 0.00 | 0.00 | 42 | 1011.4 |
| 20260504190506 | 69 | 290 | 5.0 | 19.0 | 0.00 | 0.00 | 0.00 | 44 | 1011.4 |
| 20260504190006 | 68 | 219 | 8.0 | 19.0 | 0.00 | 0.00 | 0.00 | 45 | 1011.6 |
| 20260504185506 | 68 | 319 | 7.0 | 15.0 | 0.00 | 0.00 | 0.00 | 44 | 1011.6 |
| 20260504185006 | 68 | 267 | 5.0 | 15.0 | 0.00 | 0.00 | 0.00 | 46 | 1011.7 |
| 20260504184514 | 67 | 223 | 9.0 | 19.0 | 0.00 | 0.00 | 0.00 | 45 | 1011.8 |
| 20260504184006 | 67 | 282 | 11.0 | 19.0 | 0.00 | 0.00 | 0.00 | 47 | 1012.0 |
| 20260504183507 | 67 | 282 | 6.0 | 23.0 | 0.00 | 0.00 | 0.00 | 49 | 1012.0 |
| 20260504183019 | 66 | 305 | 9.0 | 23.0 | 0.00 | 0.00 | 0.00 | 47 | 1012.1 |
| 20260504182508 | 66 | 298 | 7.0 | 19.0 | 0.00 | 0.00 | 0.00 | 46 | 1012.2 |
| 20260504182008 | 67 | 229 | 5.0 | 19.0 | 0.00 | 0.00 | 0.00 | 47 | 1012.3 |
| 20260504181521 | 67 | 280 | 6.0 | 19.0 | 0.00 | 0.00 | 0.00 | 47 | 1012.3 |
| 20260504181008 | 66 | 223 | 7.0 | 19.0 | 0.00 | 0.00 | 0.00 | 49 | 1012.3 |
| 20260504180510 | 66 | 259 | 5.0 | 18.0 | 0.00 | 0.00 | 0.00 | 51 | 1012.4 |
| 20260504180025 | 65 | 288 | 8.0 | 18.0 | 0.00 | 0.00 | 0.00 | 50 | 1012.4 |
| 20260504175506 | 65 | 223 | 8.0 | 17.0 | 0.00 | 0.00 | 0.00 | 49 | 1012.6 |
| 20260504175006 | 65 | 307 | 3.0 | 18.0 | 0.00 | 0.00 | 0.00 | 52 | 1012.3 |
| 20260504174510 | 65 | 278 | 7.0 | 18.0 | 0.00 | 0.00 | 0.00 | 51 | 1012.7 |
| 20260504174006 | 64 | 325 | 6.0 | 20.0 | 0.00 | 0.00 | 0.00 | 52 | 1012.8 |
| 20260504173504 | 64 | 279 | 10.0 | 20.0 | 0.00 | 0.00 | 0.00 | 51 | 1012.8 |
| 20260504173018 | 65 | 242 | 8.0 | 18.0 | 0.00 | 0.00 | 0.00 | 52 | 1013.0 |
| 20260504172507 | 64 | 225 | 7.0 | 18.0 | 0.00 | 0.00 | 0.00 | 53 | 1012.9 |
| 20260504172010 | 64 | 259 | 9.0 | 16.0 | 0.00 | 0.00 | 0.00 | 54 | 1013.0 |
| 20260504171524 | 64 | 270 | 5.0 | 15.0 | 0.00 | 0.00 | 0.00 | 52 | 1013.1 |
| 20260504171007 | 63 | 360 | 6.0 | 20.0 | 0.00 | 0.00 | 0.00 | 54 | 1013.2 |
| 20260504170517 | 63 | 253 | 7.0 | 20.0 | 0.00 | 0.00 | 0.00 | 53 | 1013.3 |
| 20260504151007 | 61 | 304 | 7.0 | 23.0 | 0.00 | 0.00 | 0.00 | 50 | 1014.5 |
| 20260504150510 | 61 | 262 | 13.0 | 23.0 | 0.00 | 0.00 | 0.00 | 50 | 1014.5 |
| 20260504141008 | 60 | 268 | 6.0 | 17.0 | 0.00 | 0.00 | 0.00 | 49 | 1014.4 |
| 20260504140507 | 60 | 272 | 3.0 | 21.0 | 0.00 | 0.00 | 0.00 | 50 | 1014.3 |
| 20260504130519 | 55 | 232 | 2.0 | 10.0 | 0.00 | 0.00 | 0.00 | 56 | 1014.4 |
| 20260504110503 | 41 | 272 | 0.0 | 2.0 | 0.00 | 0.00 | 0.00 | 88 | 1015.0 |
| 20260504100507 | 44 | 215 | 0.0 | 2.0 | 0.00 | 0.00 | 0.00 | 81 | 1015.1 |
| 20260504082005 | 46 | 320 | 2.0 | 5.0 | 0.00 | 0.00 | 0.00 | 70 | 1015.2 |
| 20260504081530 | 47 | 321 | 1.0 | 4.0 | 0.00 | 0.00 | 0.00 | 68 | 1015.2 |
| 20260504081002 | 47 | 352 | 0.0 | 5.0 | 0.00 | 0.00 | 0.00 | 68 | 1015.2 |
| 20260504080503 | 47 | 305 | 1.0 | 5.0 | 0.00 | 0.00 | 0.00 | 66 | 1015.3 |